Location: Igloolik
(69.3800°N, 81.8000°W)
Time: 00:07:37
(UTC-05:00)

Amateur Radio Satellites - All Passes

Search period start: 23 May 2015 23:37
Search period end: 24 May 2015 23:37
Location: Igloolik, 69.3800°N, 81.8000°W

Satellite Date Start Highest point End Downlink Frequencies (MHz)
Time Altitude Azimuth
DANDE 23 May 23:39:35 23:48:16 84° 248° (WSW) 23:56:09 436.750
O/OREOS (USA 219) 23 May 23:44:25 23:48:55 74° 217° (SW) 23:53:23 437.305
CUBESAT XI-V 23 May 23:45:27 23:48:43 19° 348° (NNW) 23:51:58 437.345
Oscar 19 23 May 23:47:36 23:49:26 12° 66° (ENE) 23:51:26 437.125/150
ESTCUBE 1 23 May 23:51:24 23:55:11 25° 272° (W) 23:58:57 437.505/2401.250
MOZHAYETS 4 23 May 23:52:40 23:55:55 20° 16° (NNE) 23:59:12
ZACube-1 23 May 23:53:17 23:54:55 12° 291° (WNW) 23:56:25 437.345
Cosmos 2491 23 May 23:56:24 00:04:40 40° 337° (NNW) 00:12:56 435.465 / 435.565
M-CUBED/EXP-1 PRIME 23 May 23:59:29 00:02:33 25° 342° (NNW) 00:05:26 437.505
STARS 24 May 00:01:15 00:05:13 32° 39° (NE) 00:09:13 437.465
UKube-1 24 May 00:01:51 00:03:48 13° 286° (WNW) 00:05:40 .
VELOX 1 24 May 00:03:58 00:06:59 17° 280° (W) 00:09:57 145.980
ANTELSAT 24 May 00:04:16 00:08:52 85° 113° (ESE) 00:13:20 437.575/2403.000
TISAT 1 24 May 00:04:22 00:08:30 45° 259° (W) 00:12:40 437.305
DX 1 24 May 00:05:40 00:07:21 12° 287° (WNW) 00:08:56 434.975-435.025
BUGSAT 1 24 May 00:06:28 00:10:39 49° 102° (ESE) 00:14:51 437.445
POLYITAN 1 24 May 00:06:34 00:10:54 61° 107° (ESE) 00:15:10 437.675
QB50P1 24 May 00:06:36 00:10:55 60° 106° (ESE) 00:15:11 145.935-145.965
Cosmos 2499 24 May 00:06:57 00:14:07 51° 46° (NE) 00:21:00 435.465 / 435.565
GONETS M04 24 May 00:08:33 00:17:26 82° 254° (WSW) 00:26:15
AUBIESAT-1 24 May 00:11:08 00:14:07 24° 343° (NNW) 00:16:58 437.475
CUBEBUG 1 24 May 00:11:50 00:15:14 21° 276° (W) 00:18:38 437.445
HUMSAT D 24 May 00:16:45 00:18:06 11° 289° (WNW) 00:19:21 437.325/437.525
BEESAT 3 24 May 00:19:39 00:23:32 41° 195° (SSW) 00:27:25 437.485
KKS-1 24 May 00:24:07 00:28:26 46° 49° (NE) 00:32:46 437.445
50 SAT 24 May 00:27:23 00:28:31 11° 287° (WNW) 00:29:32 437.505
AIST 2 24 May 00:30:34 00:34:42 47° 184° (S) 00:38:49 435.215
AIST 1 24 May 00:35:16 00:38:37 21° 330° (NNW) 00:41:58
CUSAT 1 24 May 00:35:54 00:43:52 52° 266° (W) 00:50:49 437.405
AISAT 24 May 00:36:04 00:37:55 12° 288° (WNW) 00:39:40 437.250
TIGRISAT 24 May 00:38:55 00:43:29 68° 301° (WNW) 00:47:55 435.000
NANOSAT C BR1 24 May 00:39:24 00:43:45 88° 113° (ESE) 00:48:04 145.865
QB50P2 24 May 00:44:45 00:49:07 86° 295° (WNW) 00:53:26 145.880/145.840
ITUPSAT 1 24 May 00:50:02 00:54:49 67° 252° (WSW) 00:59:36 437.325
UNISAT 6 24 May 00:57:50 01:02:20 55° 305° (NW) 01:06:41 437.425
POPSAT HIP 1 24 May 00:57:59 01:02:20 76° 298° (WNW) 01:06:39 437.405
PCSat 24 May 00:58:26 01:00:27 12° 108° (ESE) 01:02:36 145.827
BEESAT 24 May 01:00:09 01:04:53 59° 254° (WSW) 01:09:38 436.000
DUCHIFAT 1 24 May 01:02:54 01:07:13 72° 299° (WNW) 01:11:31 145.980
BEESAT 2 24 May 01:03:32 01:07:21 35° 204° (SSW) 01:11:08 435.950
PRISM 24 May 01:04:14 01:06:45 16° 1° (N) 01:09:16 437.425
SPROUT 24 May 01:04:29 01:07:50 21° 276° (W) 01:11:08 437.525
SWISSCUBE 24 May 01:08:13 01:12:54 52° 257° (WSW) 01:17:35 437.505
Cosmos 2504 24 May 01:09:01 01:12:22 13° 313° (NW) 01:15:30 435.465 / 435.565
STRAND 1 24 May 01:15:02 01:18:58 23° 1° (N) 01:22:54 437.568
CUBESAT XI-V 24 May 01:21:37 01:24:53 19° 12° (NNE) 01:28:10 437.345
DANDE 24 May 01:22:59 01:30:56 43° 273° (W) 01:38:09 436.750
O/OREOS (USA 219) 24 May 01:23:57 01:27:54 30° 240° (WSW) 01:31:48 437.305
Oscar 19 24 May 01:25:53 01:30:33 32° 91° (E) 01:35:12 437.125/150
MOZHAYETS 4 24 May 01:28:07 01:32:10 32° 40° (NE) 01:36:14
ITAMSAT 1 24 May 01:32:14 01:35:56 19° 79° (E) 01:39:44 435.822/435.867
M-CUBED/EXP-1 PRIME 24 May 01:33:43 01:36:39 22° 5° (N) 01:39:25 437.505
STARS 24 May 01:36:49 01:41:18 79° 62° (ENE) 01:45:48 437.465
ANTELSAT 24 May 01:41:11 01:45:25 37° 316° (NW) 01:49:32 437.575/2403.000
BUGSAT 1 24 May 01:42:03 01:46:14 55° 305° (NW) 01:50:26 437.445
QB50P1 24 May 01:42:36 01:46:46 47° 308° (NW) 01:50:54 145.935-145.965
POLYITAN 1 24 May 01:42:37 01:46:47 47° 309° (NW) 01:50:56 437.675
TISAT 1 24 May 01:42:48 01:45:22 15° 282° (WNW) 01:47:50 437.305
AUBIESAT-1 24 May 01:45:15 01:48:08 22° 6° (N) 01:50:54 437.475
Gurwin Techsat 1B 24 May 01:49:21 01:53:33 23° 82° (E) 01:57:49 435.225
Cosmos 2491 24 May 01:56:00 02:04:05 37° 8° (N) 02:12:10 435.465 / 435.565
BEESAT 3 24 May 01:57:30 02:00:51 24° 218° (SW) 02:04:09 437.485
KKS-1 24 May 02:00:31 02:05:01 66° 252° (WSW) 02:09:33 437.445
Cosmos 2499 24 May 02:00:33 02:07:52 80° 254° (WSW) 02:14:56 435.465 / 435.565
GONETS M04 24 May 02:05:30 02:13:31 40° 281° (W) 02:21:24
AIST 2 24 May 02:08:52 02:12:46 34° 207° (SSW) 02:16:37 435.215
AIST 1 24 May 02:15:13 02:17:50 15° 356° (N) 02:20:28
NANOSAT C BR1 24 May 02:15:23 02:19:19 35° 316° (NW) 02:23:15 145.865
TIGRISAT 24 May 02:15:45 02:19:45 29° 323° (NW) 02:23:37 435.000
CUSAT 1 24 May 02:18:45 02:25:04 25° 291° (WNW) 02:30:44 437.405
AO-7 24 May 02:19:07 02:24:34 19° 67° (ENE) 02:30:12 29.400- 29.500
QB50P2 24 May 02:20:47 02:24:42 33° 318° (NW) 02:28:34 145.880/145.840
ITUPSAT 1 24 May 02:29:44 02:33:34 23° 275° (W) 02:37:23 437.325
HORYU 2 24 May 02:30:06 02:32:06 13° 74° (ENE) 02:34:11 437.375
POPSAT HIP 1 24 May 02:33:59 02:37:49 30° 320° (NW) 02:41:35 437.405
UNISAT 6 24 May 02:34:40 02:38:29 26° 328° (NNW) 02:42:11 437.425
PCSat 24 May 02:37:46 02:42:25 30° 131° (SE) 02:47:07 145.827
PRISM 24 May 02:38:02 02:41:04 20° 24° (NNE) 02:44:07 437.425
DUCHIFAT 1 24 May 02:38:51 02:42:37 29° 321° (NW) 02:46:20 145.980
BEESAT 24 May 02:40:05 02:43:42 21° 277° (W) 02:47:17 436.000
BEESAT 2 24 May 02:41:42 02:44:36 18° 226° (SW) 02:47:26 435.950
SWISSCUBE 24 May 02:48:31 02:51:51 18° 280° (W) 02:55:08 437.505
STRAND 1 24 May 02:52:42 02:57:02 28° 25° (NNE) 03:01:23 437.568
CUBESAT XI-V 24 May 02:57:16 03:01:15 29° 36° (NE) 03:05:18 437.345
MOZHAYETS 4 24 May 03:04:24 03:09:00 77° 63° (ENE) 03:13:36
Oscar 19 24 May 03:05:19 03:10:34 86° 114° (ESE) 03:15:47 437.125/150
O/OREOS (USA 219) 24 May 03:05:21 03:06:06 10° 263° (W) 03:06:44 437.305
DANDE 24 May 03:06:21 03:12:20 21° 298° (WNW) 03:17:51 436.750
M-CUBED/EXP-1 PRIME 24 May 03:07:25 03:10:50 30° 27° (NNE) 03:14:02 437.505
ITAMSAT 1 24 May 03:11:32 03:16:39 52° 103° (ESE) 03:21:47 435.822/435.867
STARS 24 May 03:14:03 03:18:10 35° 265° (W) 03:22:17 437.465
BUGSAT 1 24 May 03:17:38 03:21:08 25° 327° (NNW) 03:24:37 437.445
ANTELSAT 24 May 03:17:52 03:21:19 21° 339° (NNW) 03:24:41 437.575/2403.000
QB50P1 24 May 03:18:32 03:21:56 23° 331° (NNW) 03:25:19 145.935-145.965
POLYITAN 1 24 May 03:18:35 03:22:00 23° 331° (NNW) 03:25:23 437.675
AUBIESAT-1 24 May 03:18:52 03:22:16 31° 29° (NNE) 03:25:29 437.475
YUBILEINY 24 May 03:20:27 03:23:06 12° 29° (NNE) 03:25:55 435.215
JAS-2 24 May 03:21:21 03:25:50 25° 83° (E) 03:30:10 435.910
Gurwin Techsat 1B 24 May 03:29:17 03:34:36 62° 106° (ESE) 03:39:54 435.225
KKS-1 24 May 03:38:56 03:42:28 22° 275° (W) 03:46:00 437.445
AIST 2 24 May 03:47:38 03:50:26 17° 229° (SW) 03:53:09 435.215
NANOSAT C BR1 24 May 03:51:11 03:54:17 20° 339° (NNW) 03:57:23 145.865
TIGRISAT 24 May 03:52:13 03:55:27 19° 347° (NNW) 03:58:37 435.000
Cosmos 2499 24 May 03:53:51 04:00:15 34° 281° (W) 04:06:24 435.465 / 435.565
AIST 1 24 May 03:54:06 03:57:08 18° 21° (NNE) 04:00:13
Cosmos 2491 24 May 03:54:37 04:03:13 50° 39° (NE) 04:11:47 435.465 / 435.565
QB50P2 24 May 03:56:37 03:59:41 19° 340° (NNW) 04:02:44 145.880/145.840
GONETS M04 24 May 04:02:16 04:08:03 19° 309° (NW) 04:13:38
CUSAT 1 24 May 04:02:17 04:05:09 12° 316° (NW) 04:07:44 437.405
HORYU 2 24 May 04:05:51 04:10:03 38° 97° (E) 04:14:13 437.375
POPSAT HIP 1 24 May 04:09:43 04:12:43 18° 344° (NNW) 04:15:41 437.405
SO-50 24 May 04:10:12 04:12:38 14° 122° (ESE) 04:15:11 436.795
UNISAT 6 24 May 04:11:01 04:14:09 18° 352° (N) 04:17:14 437.425
PRISM 24 May 04:11:56 04:15:45 39° 47° (NE) 04:19:37 437.425
AO-7 24 May 04:12:15 04:20:04 41° 95° (E) 04:27:56 29.400- 29.500
DUCHIFAT 1 24 May 04:14:30 04:17:26 18° 345° (NNW) 04:20:21 145.980
PCSat 24 May 04:19:50 04:25:08 56° 155° (SSE) 04:30:28 145.827
STRAND 1 24 May 04:30:34 04:35:32 52° 49° (NE) 04:40:32 437.568
CUBESAT XI-V 24 May 04:33:36 04:38:12 66° 59° (ENE) 04:42:51 437.345
M-CUBED/EXP-1 PRIME 24 May 04:41:26 04:45:23 68° 47° (NE) 04:49:02 437.505
MOZHAYETS 4 24 May 04:42:23 04:46:39 36° 265° (W) 04:50:54
Oscar 19 24 May 04:44:48 04:49:42 42° 318° (NW) 04:54:33 437.125/150
DANDE 24 May 04:50:54 04:52:37 11° 323° (NW) 04:54:08 436.750
ITAMSAT 1 24 May 04:51:13 04:56:23 63° 306° (NW) 05:01:33 435.822/435.867
BUGSAT 1 24 May 04:52:47 04:55:31 17° 350° (N) 04:58:15 437.445
AUBIESAT-1 24 May 04:52:51 04:56:47 73° 50° (NE) 05:00:25 437.475
ANTELSAT 24 May 04:53:48 04:56:52 18° 3° (N) 04:59:55 437.575/2403.000
QB50P1 24 May 04:53:56 04:56:40 17° 354° (N) 04:59:24 145.935-145.965
POLYITAN 1 24 May 04:54:00 04:56:46 17° 355° (N) 04:59:31 437.675
STARS 24 May 04:54:14 04:55:59 12° 288° (WNW) 04:57:38 437.465
CUTE-I 24 May 04:59:23 05:02:28 15° 72° (ENE) 05:05:41 437.470
JAS-2 24 May 05:06:33 05:12:03 71° 109° (ESE) 05:17:15 435.910
Gurwin Techsat 1B 24 May 05:09:26 05:14:39 56° 310° (NW) 05:19:52 435.225
YUBILEINY 24 May 05:10:20 05:16:34 23° 58° (ENE) 05:22:56 435.215
Cubesat XI-IV 24 May 05:18:46 05:22:28 19° 77° (ENE) 05:26:16 437.490
NANOSAT C BR1 24 May 05:26:13 05:28:55 16° 2° (N) 05:31:37 145.865
TIGRISAT 24 May 05:27:45 05:30:56 19° 11° (N) 05:34:06 435.000
QB50P2 24 May 05:31:38 05:34:21 17° 4° (N) 05:37:05 145.880/145.840
AIST 1 24 May 05:32:03 05:36:03 34° 47° (NE) 05:40:03
HORYU 2 24 May 05:42:34 05:47:03 73° 300° (WNW) 05:51:29 437.375
POPSAT HIP 1 24 May 05:44:36 05:47:21 17° 7° (N) 05:50:07 437.405
UNISAT 6 24 May 05:46:23 05:49:41 20° 16° (NNE) 05:52:57 437.425
PRISM 24 May 05:46:57 05:51:04 73° 249° (WSW) 05:55:13 437.425
Cosmos 2499 24 May 05:47:28 05:51:17 15° 308° (NW) 05:54:51 435.465 / 435.565
SO-50 24 May 05:47:45 05:51:58 30° 145° (SE) 05:56:17 436.795
DUCHIFAT 1 24 May 05:49:16 05:52:01 17° 8° (N) 05:54:46 145.980
Cosmos 2491 24 May 05:52:14 06:01:10 86° 66° (ENE) 06:10:04 435.465 / 435.565
GONETS M04 24 May 05:59:31 06:01:11 11° 339° (NNW) 06:02:43
PCSat 24 May 06:02:53 06:08:18 71° 179° (S) 06:13:45 145.827
AO-7 24 May 06:05:35 06:14:01 82° 121° (ESE) 06:22:27 29.400- 29.500
STRAND 1 24 May 06:09:39 06:14:45 65° 251° (WSW) 06:19:54 437.568
CUBESAT XI-V 24 May 06:11:29 06:15:55 43° 262° (W) 06:20:23 437.345
M-CUBED/EXP-1 PRIME 24 May 06:16:42 06:20:30 38° 249° (WSW) 06:23:59 437.505
HO-68 24 May 06:23:08 06:25:47 12° 56° (ENE) 06:28:40 435.675
MOZHAYETS 4 24 May 06:23:15 06:25:16 12° 289° (WNW) 06:27:10
Oscar 19 24 May 06:23:56 06:28:10 26° 342° (NNW) 06:32:23 437.125/150
BUGSAT 1 24 May 06:26:57 06:29:45 17° 14° (NNE) 06:32:35 437.445
AUBIESAT-1 24 May 06:28:11 06:31:51 35° 250° (WSW) 06:35:17 437.475
QB50P1 24 May 06:28:18 06:31:18 19° 18° (NNE) 06:34:20 145.935-145.965
POLYITAN 1 24 May 06:28:25 06:31:27 19° 18° (NNE) 06:34:30 437.675
ANTELSAT 24 May 06:28:51 06:32:29 23° 26° (NNE) 06:36:05 437.575/2403.000
ITAMSAT 1 24 May 06:30:44 06:35:20 32° 330° (NNW) 06:39:55 435.822/435.867
Cosmos 2504 24 May 06:38:20 06:41:00 12° 43° (NE) 06:43:49 435.465 / 435.565
CUTE-I 24 May 06:39:02 06:44:05 41° 96° (E) 06:49:10 437.470
DOVE 4 24 May 06:40:04 06:41:04 11° 60° (ENE) 06:42:14 437.250
BRITE-PL 24 May 06:40:25 06:44:10 18° 71° (ENE) 06:48:02 437.365/2234.400
Gurwin Techsat 1B 24 May 06:49:23 06:53:58 30° 333° (NNW) 06:58:33 435.225
JAS-2 24 May 06:51:51 06:57:11 49° 315° (NW) 07:02:11 435.910
Cubesat XI-IV 24 May 06:58:40 07:03:53 50° 101° (E) 07:09:07 437.490
GOMX 1 24 May 06:59:52 07:03:20 17° 70° (ENE) 07:06:53 467.674
NANOSAT C BR1 24 May 07:00:20 07:03:35 21° 26° (NNE) 07:06:52 145.865
TIGRISAT 24 May 07:02:41 07:06:37 28° 34° (NE) 07:10:30 435.000
YUBILEINY 24 May 07:03:16 07:11:29 48° 86° (E) 07:19:43 435.215
QB50P2 24 May 07:05:46 07:09:06 22° 28° (NNE) 07:12:27 145.880/145.840
AIST 1 24 May 07:09:47 07:14:11 87° 250° (WSW) 07:18:34
POPSAT HIP 1 24 May 07:18:40 07:22:06 24° 30° (NNE) 07:25:34 437.405
HORYU 2 24 May 07:19:20 07:23:17 31° 323° (NW) 07:27:11 437.375
UNISAT 6 24 May 07:21:22 07:25:28 32° 39° (NE) 07:29:32 437.425
DUCHIFAT 1 24 May 07:23:16 07:26:43 24° 31° (NNE) 07:30:11 145.980
PRISM 24 May 07:23:55 07:27:12 22° 272° (W) 07:30:28 437.425
RS-15 24 May 07:25:46 07:30:37 14° 87° (E) 07:36:00 29.354- 29.394
SO-50 24 May 07:27:09 07:31:50 47° 168° (SSE) 07:36:36 436.795
SEEDS 24 May 07:27:41 07:28:46 11° 71° (ENE) 07:29:58 437.485
COMPASS 1 24 May 07:45:45 07:47:25 12° 73° (ENE) 07:49:12 437.405
PCSat 24 May 07:46:10 07:51:31 58° 203° (SSW) 07:56:51 145.827
Cosmos 2491 24 May 07:49:16 07:57:37 48° 275° (W) 08:05:53 435.465 / 435.565
STRAND 1 24 May 07:50:47 07:54:56 24° 276° (W) 07:59:02 437.568
CUBESAT XI-V 24 May 07:51:53 07:54:36 15° 286° (WNW) 07:57:16 437.345
M-CUBED/EXP-1 PRIME 24 May 07:54:44 07:56:19 12° 271° (W) 07:57:46 437.505
AO-7 24 May 07:58:34 08:06:44 61° 327° (NNW) 08:14:56 29.400- 29.500
AAUSAT CUBESAT 2 24 May 08:00:27 08:02:31 14° 75° (ENE) 08:04:41 437.432
BUGSAT 1 24 May 08:00:37 08:04:12 27° 37° (NE) 08:07:51 437.445
Oscar 19 24 May 08:02:18 08:06:19 23° 6° (N) 08:10:21 437.125/150
QB50P1 24 May 08:02:25 08:06:14 32° 41° (NE) 08:10:05 145.935-145.965
POLYITAN 1 24 May 08:02:35 08:06:25 32° 41° (NE) 08:10:18 437.675
ANTELSAT 24 May 08:04:05 08:08:30 44° 49° (NE) 08:12:53 437.575/2403.000
AUBIESAT-1 24 May 08:06:37 08:07:40 11° 272° (W) 08:08:36 437.475
ITAMSAT 1 24 May 08:09:41 08:13:46 24° 354° (N) 08:17:51 435.822/435.867
HO-68 24 May 08:10:12 08:16:21 30° 84° (E) 08:22:31 435.675
DOVE 4 24 May 08:16:11 08:20:44 28° 85° (E) 08:25:13 437.250
CINEMA 3 24 May 08:18:00 08:21:32 19° 77° (ENE) 08:25:04 145.822/145.860
BRITE-PL 24 May 08:18:41 08:24:08 44° 95° (E) 08:29:36 437.365/2234.400
CUTE-I 24 May 08:19:15 08:24:38 79° 301° (WNW) 08:30:02 437.470
Cosmos 2504 24 May 08:25:35 08:31:51 27° 70° (ENE) 08:37:56 435.465 / 435.565
Gurwin Techsat 1B 24 May 08:28:39 08:32:48 24° 358° (N) 08:36:57 435.225
CANX-2 24 May 08:30:22 08:34:00 27° 89° (E) 08:37:38 2200.000
Oscar 11 24 May 08:30:44 08:33:01 14° 75° (ENE) 08:35:24 145.826/435.025
CUTE 1.7 + AOD 2 24 May 08:34:25 08:38:03 27° 89° (E) 08:41:41 437.475
NANOSAT C BR1 24 May 08:34:36 08:38:39 41° 49° (NE) 08:42:44 145.865
JAS-2 24 May 08:36:44 08:41:29 28° 340° (NNW) 08:45:55 435.910
GOMX 1 24 May 08:37:39 08:42:55 43° 94° (E) 08:48:06 467.674
TIGRISAT 24 May 08:38:12 08:42:49 60° 56° (ENE) 08:47:21 435.000
Cubesat XI-IV 24 May 08:38:56 08:44:16 67° 305° (NW) 08:49:37 437.490
QB50P2 24 May 08:40:09 08:44:16 44° 50° (NE) 08:48:24 145.880/145.840
AIST 1 24 May 08:47:45 08:51:26 27° 273° (W) 08:55:06
UWE-3 24 May 08:48:51 08:51:41 16° 76° (ENE) 08:54:33 435.000/436.395/437.385
DELFI C3 24 May 08:49:01 08:51:07 14° 77° (ENE) 08:53:17 145.870
POPSAT HIP 1 24 May 08:53:09 08:57:20 50° 53° (NE) 09:01:33 437.405
HORYU 2 24 May 08:55:44 08:58:56 20° 346° (NNW) 09:02:08 437.375
UNISAT 6 24 May 08:57:09 09:01:50 74° 61° (ENE) 09:06:26 437.425
DUCHIFAT 1 24 May 08:57:43 09:01:54 51° 54° (NE) 09:06:07 145.980
YUBILEINY 24 May 08:59:06 09:07:55 85° 293° (WNW) 09:16:43 435.215
SEEDS 24 May 09:02:03 09:05:54 33° 94° (E) 09:09:44 437.485
SO-50 24 May 09:07:12 09:11:56 47° 191° (SSW) 09:16:42 436.795
FUNcube-1 24 May 09:07:27 09:10:24 17° 78° (ENE) 09:13:22 145.935
COMPASS 1 24 May 09:20:24 09:24:19 37° 96° (E) 09:28:14 437.405
PCSat 24 May 09:29:30 09:34:17 32° 227° (SW) 09:39:03 145.827
RS-15 24 May 09:29:59 09:39:12 34° 116° (ESE) 09:48:52 29.354- 29.394
CUBEBUG 2 24 May 09:30:53 09:34:57 29° 89° (E) 09:38:55 437.445
BUGSAT 1 24 May 09:35:00 09:39:11 66° 60° (ENE) 09:43:27 437.445
AAUSAT CUBESAT 2 24 May 09:35:17 09:39:15 42° 99° (E) 09:43:13 437.432
QB50P1 24 May 09:37:25 09:41:45 81° 64° (ENE) 09:46:06 145.935-145.965
POLYITAN 1 24 May 09:37:38 09:41:59 81° 64° (ENE) 09:46:21 437.675
Oscar 19 24 May 09:40:02 09:44:34 31° 30° (NNE) 09:49:07 437.125/150
ANTELSAT 24 May 09:40:30 09:45:12 71° 251° (WSW) 09:49:49 437.575/2403.000
GONETS M04 24 May 09:41:58 09:46:19 15° 40° (NE) 09:50:51
Cosmos 2491 24 May 09:46:04 09:52:31 23° 302° (WNW) 09:58:48 435.465 / 435.565
ZACube-1 24 May 09:46:24 09:50:13 27° 88° (E) 09:53:59 437.345
ITAMSAT 1 24 May 09:47:51 09:52:05 26° 18° (NNE) 09:56:21 435.822/435.867
DANDE 24 May 09:47:56 09:50:50 12° 42° (NE) 09:53:59 436.750
AO-7 24 May 09:50:51 09:58:42 48° 354° (N) 10:06:35 29.400- 29.500
ESTCUBE 1 24 May 09:52:21 09:53:54 12° 70° (ENE) 09:55:34 437.505/2401.250
DOVE 4 24 May 09:53:55 09:59:19 74° 109° (ESE) 10:04:31 437.250
CINEMA 3 24 May 09:54:56 09:59:52 53° 102° (ESE) 10:04:35 145.822/145.860
UKube-1 24 May 09:55:04 09:58:12 19° 83° (E) 10:01:22 .
BRITE-PL 24 May 09:57:20 10:03:03 78° 298° (WNW) 10:08:46 437.365/2234.400
HO-68 24 May 09:58:15 10:05:27 66° 110° (ESE) 10:12:36 435.675
DX 1 24 May 09:59:05 10:02:25 21° 85° (E) 10:05:48 434.975-435.025
CUTE-I 24 May 09:59:26 10:04:21 38° 324° (NW) 10:09:16 437.470
VELOX 1 24 May 10:01:12 10:03:59 16° 78° (ENE) 10:06:51 145.980
HUMSAT D 24 May 10:06:10 10:09:33 22° 86° (E) 10:12:54 437.325/437.525
CANX-2 24 May 10:06:13 10:10:30 86° 108° (ESE) 10:14:45 2200.000
Oscar 11 24 May 10:06:13 10:10:22 42° 99° (E) 10:14:30 145.826/435.025
Gurwin Techsat 1B 24 May 10:07:09 10:11:35 28° 22° (NNE) 10:16:03 435.225
CUBEBUG 1 24 May 10:08:46 10:10:48 13° 73° (ENE) 10:12:57 437.445
NANOSAT C BR1 24 May 10:10:04 10:14:23 71° 252° (WSW) 10:18:44 145.865
CUTE 1.7 + AOD 2 24 May 10:10:15 10:14:33 86° 114° (ESE) 10:18:47 437.475
50 SAT 24 May 10:10:52 10:13:27 17° 82° (E) 10:16:04 437.505
TIGRISAT 24 May 10:15:10 10:19:44 48° 259° (W) 10:24:13 435.000
QB50P2 24 May 10:15:47 10:20:06 65° 252° (WSW) 10:24:26 145.880/145.840
GOMX 1 24 May 10:15:54 10:21:27 78° 298° (WNW) 10:26:54 467.674
Cosmos 2504 24 May 10:16:10 10:24:03 60° 96° (E) 10:31:26 435.465 / 435.565
Cubesat XI-IV 24 May 10:19:05 10:23:51 34° 328° (NNW) 10:28:38 437.490
JAS-2 24 May 10:20:45 10:25:22 25° 7° (N) 10:29:42 435.910
DELFI C3 24 May 10:23:23 10:27:16 44° 100° (E) 10:31:09 145.870
UWE-3 24 May 10:24:54 10:29:22 47° 100° (E) 10:33:41 435.000/436.395/437.385
POPSAT HIP 1 24 May 10:28:59 10:33:15 56° 255° (WSW) 10:37:32 437.405
HORYU 2 24 May 10:31:16 10:34:22 19° 10° (N) 10:37:30 437.375
AISAT 24 May 10:31:24 10:35:01 23° 86° (E) 10:38:39 437.250
DUCHIFAT 1 24 May 10:33:33 10:37:47 53° 256° (WSW) 10:42:02 145.980
UNISAT 6 24 May 10:34:34 10:38:58 38° 264° (W) 10:43:18 437.425
CUSAT 1 24 May 10:36:29 10:41:36 19° 60° (ENE) 10:46:58 437.405
SEEDS 24 May 10:37:51 10:42:05 76° 297° (WNW) 10:46:16 437.485
FUNcube-1 24 May 10:43:23 10:47:47 51° 102° (ESE) 10:52:05 145.935
SO-50 24 May 10:47:29 10:51:50 31° 214° (SW) 10:56:11 436.795
COMPASS 1 24 May 10:56:07 11:00:17 67° 300° (WNW) 11:04:26 437.405
YUBILEINY 24 May 10:57:24 11:05:51 49° 322° (NW) 11:14:17 435.215
SPROUT 24 May 10:59:36 11:01:32 13° 73° (ENE) 11:03:33 437.525
CUBEBUG 2 24 May 11:07:32 11:12:16 85° 112° (ESE) 11:16:49 437.445
BUGSAT 1 24 May 11:10:56 11:14:55 40° 262° (W) 11:18:58 437.445
AAUSAT CUBESAT 2 24 May 11:10:58 11:15:05 61° 302° (WNW) 11:19:10 437.432
PCSat 24 May 11:13:42 11:16:21 14° 250° (WSW) 11:18:52 145.827
QB50P1 24 May 11:14:08 11:18:02 32° 266° (W) 11:21:58 145.935-145.965
POLYITAN 1 24 May 11:14:23 11:18:19 32° 266° (W) 11:22:16 437.675
Oscar 19 24 May 11:18:12 11:23:20 61° 54° (NE) 11:28:29 437.125/150
ANTELSAT 24 May 11:18:54 11:22:44 24° 274° (W) 11:26:29 437.575/2403.000
ZACube-1 24 May 11:22:41 11:27:13 82° 111° (ESE) 11:31:38 437.345
DANDE 24 May 11:25:18 11:31:21 25° 67° (ENE) 11:37:53 436.750
ITAMSAT 1 24 May 11:25:52 11:30:43 42° 42° (NE) 11:35:39 435.822/435.867
ESTCUBE 1 24 May 11:28:03 11:32:11 34° 94° (E) 11:36:21 437.505/2401.250
UKube-1 24 May 11:30:54 11:35:14 58° 106° (ESE) 11:39:33 .
DOVE 4 24 May 11:31:48 11:36:55 47° 311° (NW) 11:41:55 437.250
CINEMA 3 24 May 11:32:15 11:37:11 58° 305° (NW) 11:41:56 145.822/145.860
GONETS M04 24 May 11:33:04 11:40:19 30° 69° (ENE) 11:47:39
TISAT 1 24 May 11:34:36 11:37:15 16° 79° (E) 11:40:00 437.305
DX 1 24 May 11:35:06 11:39:31 63° 108° (ESE) 11:43:54 434.975-435.025
BRITE-PL 24 May 11:35:55 11:41:06 38° 321° (NW) 11:46:19 437.365/2234.400
VELOX 1 24 May 11:37:16 11:41:38 47° 102° (ESE) 11:46:01 145.980
RS-15 24 May 11:38:56 11:49:33 58° 146° (SE) 12:00:41 29.354- 29.394
CUTE-I 24 May 11:39:08 11:43:27 26° 348° (NNW) 11:47:46 437.470
HUMSAT D 24 May 11:41:43 11:46:01 72° 109° (ESE) 11:50:13 437.325/437.525
CANX-2 24 May 11:42:18 11:46:11 35° 315° (NW) 11:50:02 2200.000
Oscar 11 24 May 11:42:28 11:46:47 63° 301° (WNW) 11:51:03 145.826/435.025
AO-7 24 May 11:42:33 11:50:31 53° 21° (NNE) 11:58:33 29.400- 29.500
Cosmos 2491 24 May 11:43:02 11:45:58 12° 332° (NNW) 11:48:45 435.465 / 435.565
CUBEBUG 1 24 May 11:44:16 11:48:26 38° 97° (E) 11:52:38 437.445
50 SAT 24 May 11:45:07 11:49:02 55° 104° (ESE) 11:52:54 437.505
Gurwin Techsat 1B 24 May 11:45:41 11:50:46 48° 46° (NE) 11:55:53 435.225
HO-68 24 May 11:46:14 11:53:21 65° 315° (NW) 12:00:26 435.675
CUTE 1.7 + AOD 2 24 May 11:46:20 11:50:13 35° 315° (NW) 11:54:03 437.475
NANOSAT C BR1 24 May 11:47:30 11:50:56 23° 274° (W) 11:54:22 145.865
QB50P2 24 May 11:53:28 11:56:47 21° 275° (W) 12:00:05 145.880/145.840
GOMX 1 24 May 11:54:05 11:59:07 37° 321° (NW) 12:04:06 467.674
TIGRISAT 24 May 11:54:28 11:57:33 17° 282° (WNW) 12:00:33 435.000
DELFI C3 24 May 11:58:34 12:02:33 56° 303° (WNW) 12:06:29 145.870
Cubesat XI-IV 24 May 11:58:39 12:02:54 25° 352° (N) 12:07:10 437.490
UWE-3 24 May 12:01:32 12:06:05 60° 303° (WNW) 12:10:29 435.000/436.395/437.385
JAS-2 24 May 12:04:05 12:09:25 35° 32° (NNE) 12:14:19 435.910
HORYU 2 24 May 12:06:11 12:09:59 28° 33° (NNE) 12:13:48 437.375
POPSAT HIP 1 24 May 12:06:58 12:10:02 18° 278° (W) 12:13:03 437.405
AISAT 24 May 12:07:51 12:12:23 69° 109° (ESE) 12:16:53 437.250
Cosmos 2504 24 May 12:09:30 12:17:33 68° 302° (WNW) 12:25:03 435.465 / 435.565
DUCHIFAT 1 24 May 12:11:36 12:14:32 17° 279° (W) 12:17:26 145.980
SEEDS 24 May 12:13:49 12:17:30 29° 319° (NW) 12:21:07 437.485
UNISAT 6 24 May 12:14:40 12:17:03 14° 287° (WNW) 12:19:19 437.425
CUSAT 1 24 May 12:15:14 12:22:24 39° 84° (E) 12:29:52 437.405
FUNcube-1 24 May 12:19:48 12:24:14 55° 305° (NW) 12:28:31 145.935
SO-50 24 May 12:28:26 12:31:13 15° 237° (WSW) 12:33:55 436.795
COMPASS 1 24 May 12:31:58 12:35:30 27° 322° (NW) 12:39:01 437.405
SPROUT 24 May 12:34:47 12:38:53 38° 97° (E) 12:42:58 437.525
ITUPSAT 1 24 May 12:36:24 12:39:09 15° 75° (ENE) 12:41:59 437.325
CUBEBUG 2 24 May 12:44:21 12:48:42 38° 315° (NW) 12:52:55 437.445
BEESAT 24 May 12:45:56 12:49:00 17° 78° (ENE) 12:52:09 436.000
AAUSAT CUBESAT 2 24 May 12:46:44 12:50:11 25° 324° (NW) 12:53:35 437.432
BUGSAT 1 24 May 12:49:31 12:51:35 13° 285° (WNW) 12:53:35 437.445
SWISSCUBE 24 May 12:53:49 12:57:14 19° 81° (E) 13:00:42 437.505
QB50P1 24 May 12:54:06 12:55:17 11° 290° (WNW) 12:56:20 145.935-145.965
POLYITAN 1 24 May 12:54:26 12:55:37 11° 290° (WNW) 12:56:40 437.675
YUBILEINY 24 May 12:57:00 13:04:57 36° 352° (N) 13:12:52 435.215
Oscar 19 24 May 12:57:44 13:02:52 54° 256° (WSW) 13:08:01 437.125/150
ZACube-1 24 May 12:59:10 13:03:22 38° 314° (NW) 13:07:26 437.345
Cosmos 2499 24 May 13:04:14 13:09:40 22° 65° (ENE) 13:15:01 435.465 / 435.565
ITAMSAT 1 24 May 13:04:48 13:10:01 85° 242° (WSW) 13:15:17 435.822/435.867
ESTCUBE 1 24 May 13:04:57 13:09:31 81° 295° (WNW) 13:14:04 437.505/2401.250
DANDE 24 May 13:05:31 13:13:02 50° 92° (E) 13:21:14 436.750
UKube-1 24 May 13:07:09 13:11:24 49° 309° (NW) 13:15:37 .
DOVE 4 24 May 13:09:25 13:13:50 27° 335° (NNW) 13:18:09 437.250
CINEMA 3 24 May 13:09:28 13:13:43 28° 328° (NNW) 13:17:52 145.822/145.860
TISAT 1 24 May 13:09:52 13:14:04 48° 102° (ESE) 13:18:15 437.305
DX 1 24 May 13:11:29 13:15:43 46° 311° (NW) 13:19:57 434.975-435.025
VELOX 1 24 May 13:13:56 13:18:23 60° 304° (NW) 13:22:49 145.980
BRITE-PL 24 May 13:14:03 13:18:32 25° 344° (NNW) 13:23:04 437.365/2234.400
HUMSAT D 24 May 13:17:37 13:21:38 40° 311° (NW) 13:25:35 437.325/437.525
CUTE-I 24 May 13:18:02 13:22:19 25° 12° (NNE) 13:26:39 437.470
CANX-2 24 May 13:18:14 13:21:15 19° 337° (NNW) 13:24:12 2200.000
Oscar 11 24 May 13:18:47 13:22:27 27° 324° (NW) 13:26:05 145.826/435.025
50 SAT 24 May 13:19:57 13:23:45 45° 307° (NW) 13:27:31 437.505
CUBEBUG 1 24 May 13:20:41 13:25:08 72° 300° (WNW) 13:29:35 437.445
CUTE 1.7 + AOD 2 24 May 13:22:16 13:25:16 19° 338° (NNW) 13:28:13 437.475
Gurwin Techsat 1B 24 May 13:25:19 13:30:40 75° 249° (WSW) 13:36:02 435.225
GONETS M04 24 May 13:27:07 13:35:48 63° 95° (E) 13:44:30
GOMX 1 24 May 13:31:49 13:36:10 24° 344° (NNW) 13:40:29 467.674
HO-68 24 May 13:33:45 13:40:24 42° 340° (NNW) 13:47:01 435.675
DELFI C3 24 May 13:33:51 13:37:06 24° 325° (NW) 13:40:20 145.870
AO-7 24 May 13:34:32 13:42:51 79° 48° (NE) 13:51:15 29.400- 29.500
Cubesat XI-IV 24 May 13:37:26 13:41:49 27° 17° (NNE) 13:46:13 437.490
KKS-1 24 May 13:37:56 13:39:56 13° 73° (ENE) 13:42:02 437.445
UWE-3 24 May 13:38:08 13:42:01 27° 326° (NW) 13:45:48 435.000/436.395/437.385
HORYU 2 24 May 13:41:39 13:46:06 61° 55° (NE) 13:50:31 437.375
AISAT 24 May 13:44:34 13:48:53 44° 312° (NW) 13:53:10 437.250
JAS-2 24 May 13:47:55 13:54:03 68° 56° (NE) 13:59:34 435.910
SEEDS 24 May 13:49:33 13:52:19 17° 342° (NNW) 13:55:04 437.485
RS-15 24 May 13:50:04 14:01:06 71° 176° (S) 14:12:40 29.354- 29.394
FUNcube-1 24 May 13:56:13 13:59:56 25° 328° (NNW) 14:03:33 145.935
CUSAT 1 24 May 13:56:23 14:04:22 77° 108° (ESE) 14:12:41 437.405
Cosmos 2504 24 May 14:04:57 14:12:17 39° 330° (NNW) 14:19:11 435.465 / 435.565
COMPASS 1 24 May 14:07:31 14:10:11 17° 345° (NNW) 14:12:48 437.405
SPROUT 24 May 14:10:55 14:15:17 71° 300° (WNW) 14:19:38 437.525
ITUPSAT 1 24 May 14:13:45 14:18:20 43° 99° (E) 14:22:55 437.325
CUBEBUG 2 24 May 14:20:56 14:24:29 22° 338° (NNW) 14:27:57 437.445
AAUSAT CUBESAT 2 24 May 14:22:11 14:24:45 16° 347° (NNW) 14:27:16 437.432
BEESAT 24 May 14:23:23 14:28:02 48° 102° (ESE) 14:32:40 436.000
SWISSCUBE 24 May 14:31:25 14:36:09 55° 105° (ESE) 14:40:51 437.505
ZACube-1 24 May 14:35:29 14:38:51 21° 337° (NNW) 14:42:09 437.345
Oscar 19 24 May 14:39:30 14:43:23 20° 280° (W) 14:47:12 437.125/150
ESTCUBE 1 24 May 14:41:58 14:46:02 33° 319° (NW) 14:50:05 437.505/2401.250
UKube-1 24 May 14:43:21 14:46:52 24° 331° (NNW) 14:50:24 .
ITAMSAT 1 24 May 14:45:32 14:50:12 32° 269° (W) 14:54:52 435.822/435.867
TISAT 1 24 May 14:45:44 14:49:58 56° 305° (NW) 14:54:10 437.305
CINEMA 3 24 May 14:46:08 14:49:46 20° 351° (N) 14:53:19 145.822/145.860
DOVE 4 24 May 14:46:21 14:50:19 22° 358° (N) 14:54:14 437.250
DX 1 24 May 14:47:45 14:51:17 24° 333° (NNW) 14:54:46 434.975-435.025
DANDE 24 May 14:47:56 14:55:58 86° 299° (WNW) 15:04:40 436.750
STARS 24 May 14:48:42 14:52:14 23° 86° (E) 14:55:48 437.465
VELOX 1 24 May 14:50:34 14:54:23 27° 327° (NNW) 14:58:11 145.980
BRITE-PL 24 May 14:51:23 14:55:41 24° 8° (N) 15:00:06 437.365/2234.400
HUMSAT D 24 May 14:53:25 14:56:36 21° 334° (NNW) 14:59:43 437.325/437.525
CANX-2 24 May 14:53:27 14:55:56 15° 1° (N) 14:58:26 2200.000
Cosmos 2499 24 May 14:53:56 15:01:22 50° 91° (E) 15:08:21 435.465 / 435.565
Oscar 11 24 May 14:54:44 14:57:35 17° 347° (NNW) 15:00:24 145.826/435.025
50 SAT 24 May 14:54:49 14:57:48 21° 329° (NNW) 15:00:45 437.505
YUBILEINY 24 May 14:56:09 15:04:18 40° 23° (NNE) 15:12:25 435.215
CUTE-I 24 May 14:56:33 15:01:25 37° 36° (NE) 15:06:20 437.470
CUBEBUG 1 24 May 14:57:10 15:01:04 30° 322° (NW) 15:04:56 437.445
CUTE 1.7 + AOD 2 24 May 14:57:27 14:59:57 15° 1° (N) 15:02:26 437.475
Gurwin Techsat 1B 24 May 15:06:53 15:11:29 28° 273° (W) 15:16:03 435.225
GOMX 1 24 May 15:08:46 15:12:56 23° 8° (N) 15:17:09 467.674
DELFI C3 24 May 15:08:49 15:11:10 15° 348° (NNW) 15:13:29 145.870
KKS-1 24 May 15:13:41 15:17:54 37° 97° (E) 15:22:07 437.445
UWE-3 24 May 15:14:17 15:17:27 18° 349° (N) 15:20:33 435.000/436.395/437.385
Cubesat XI-IV 24 May 15:16:02 15:21:02 42° 41° (NE) 15:26:04 437.490
HORYU 2 24 May 15:18:34 15:22:56 46° 258° (WSW) 15:27:17 437.375
HO-68 24 May 15:20:31 15:27:01 39° 6° (N) 15:33:30 435.675
AISAT 24 May 15:21:09 15:24:43 23° 334° (NNW) 15:28:15 437.250
GONETS M04 24 May 15:23:56 15:32:49 69° 303° (WNW) 15:41:41
SEEDS 24 May 15:24:23 15:26:51 15° 6° (N) 15:29:20 437.485
Cosmos 2491 24 May 15:27:33 15:31:03 13° 33° (NNE) 15:34:43 435.465 / 435.565
AO-7 24 May 15:28:02 15:36:13 57° 254° (WSW) 15:44:28 29.400- 29.500
FUNcube-1 24 May 15:32:08 15:35:07 18° 351° (N) 15:38:04 145.935
JAS-2 24 May 15:33:24 15:39:30 52° 258° (WSW) 15:44:58 435.910
CUSAT 1 24 May 15:39:30 15:47:34 61° 313° (NW) 15:55:44 437.405
COMPASS 1 24 May 15:42:07 15:44:36 15° 8° (N) 15:47:04 437.405
SPROUT 24 May 15:47:08 15:50:56 29° 321° (NW) 15:54:41 437.525
O/OREOS (USA 219) 24 May 15:51:20 15:54:11 17° 107° (ESE) 15:57:05 437.305
ITUPSAT 1 24 May 15:51:45 15:56:33 70° 302° (WNW) 16:01:18 437.325
AAUSAT CUBESAT 2 24 May 15:56:36 15:59:05 16° 11° (N) 16:01:35 437.432
CUBEBUG 2 24 May 15:56:45 15:59:55 18° 2° (N) 16:03:03 437.445
Cosmos 2504 24 May 16:01:07 16:07:53 31° 360° (N) 16:14:19 435.465 / 435.565
BEESAT 24 May 16:01:21 16:06:06 63° 304° (NW) 16:10:50 436.000
RS-15 24 May 16:01:49 16:12:48 63° 207° (SSW) 16:24:17 29.354- 29.394
SWISSCUBE 24 May 16:09:25 16:14:07 56° 307° (NW) 16:18:48 437.505
ZACube-1 24 May 16:11:02 16:13:58 17° 1° (N) 16:16:52 437.345
ESTCUBE 1 24 May 16:18:41 16:21:57 20° 343° (NNW) 16:25:14 437.505/2401.250
UKube-1 24 May 16:19:00 16:21:55 18° 355° (N) 16:24:50 .
TISAT 1 24 May 16:21:37 16:25:10 25° 327° (NNW) 16:28:41 437.305
CINEMA 3 24 May 16:21:54 16:25:39 21° 15° (NNE) 16:29:21 145.822/145.860
MOZHAYETS 4 24 May 16:22:10 16:26:04 27° 88° (E) 16:29:58
DOVE 4 24 May 16:22:29 16:26:45 25° 22° (NNE) 16:31:04 437.250
DX 1 24 May 16:23:27 16:26:24 18° 357° (N) 16:29:22 434.975-435.025
STARS 24 May 16:24:59 16:29:29 68° 110° (ESE) 16:33:56 437.465
VELOX 1 24 May 16:26:47 16:29:54 19° 350° (N) 16:33:00 145.980
CANX-2 24 May 16:27:35 16:30:39 20° 25° (NNE) 16:33:44 2200.000
BRITE-PL 24 May 16:28:11 16:32:59 32° 32° (NNE) 16:37:59 437.365/2234.400
HUMSAT D 24 May 16:28:34 16:31:09 16° 358° (N) 16:33:43 437.325/437.525
50 SAT 24 May 16:29:15 16:31:24 14° 353° (N) 16:33:32 437.505
ITAMSAT 1 24 May 16:29:31 16:31:28 12° 293° (WNW) 16:33:17 435.822/435.867
Oscar 11 24 May 16:29:43 16:32:30 17° 11° (N) 16:35:18 145.826/435.025
CUTE 1.7 + AOD 2 24 May 16:31:35 16:34:39 20° 25° (NNE) 16:37:44 437.475
DANDE 24 May 16:32:09 16:40:09 52° 323° (NW) 16:48:30 436.750
CUBEBUG 1 24 May 16:33:20 16:36:26 19° 345° (NNW) 16:39:31 437.445
CUTE-I 24 May 16:35:46 16:41:06 78° 60° (ENE) 16:46:30 437.470
DELFI C3 24 May 16:42:43 16:45:01 15° 11° (NNE) 16:47:20 145.870
GOMX 1 24 May 16:45:08 16:49:51 31° 32° (NNE) 16:54:40 467.674
Cosmos 2499 24 May 16:46:30 16:54:20 78° 296° (WNW) 17:01:40 435.465 / 435.565
UWE-3 24 May 16:49:29 16:52:41 19° 13° (NNE) 16:55:53 435.000/436.395/437.385
KKS-1 24 May 16:50:22 16:54:54 74° 299° (WNW) 16:59:25 437.445
Gurwin Techsat 1B 24 May 16:52:28 16:53:26 10° 298° (WNW) 16:54:14 435.225
YUBILEINY 24 May 16:54:10 17:02:53 64° 53° (NE) 17:11:32 435.215
Cubesat XI-IV 24 May 16:55:32 17:00:54 88° 244° (WSW) 17:06:19 437.490
AISAT 24 May 16:57:05 17:00:09 18° 358° (N) 17:03:12 437.250
HORYU 2 24 May 16:57:52 17:00:41 16° 282° (WNW) 17:03:25 437.375
SEEDS 24 May 16:58:18 17:01:30 21° 29° (NNE) 17:04:43 437.485
HO-68 24 May 17:06:54 17:13:46 50° 32° (NNE) 17:20:39 435.675
FUNcube-1 24 May 17:07:03 17:10:10 19° 15° (NNE) 17:13:16 145.935
COMPASS 1 24 May 17:15:53 17:19:08 22° 32° (NNE) 17:22:25 437.405
Cosmos 2491 24 May 17:18:01 17:24:44 26° 62° (ENE) 17:31:35 435.465 / 435.565
JAS-2 24 May 17:21:29 17:25:58 20° 283° (WNW) 17:30:03 435.910
GONETS M04 24 May 17:22:56 17:31:17 42° 333° (NNW) 17:39:36
SPROUT 24 May 17:23:03 17:26:01 18° 345° (NNW) 17:28:58 437.525
CUSAT 1 24 May 17:23:59 17:31:44 41° 339° (NNW) 17:39:20 437.405
AO-7 24 May 17:24:11 17:31:02 27° 281° (W) 17:37:47 29.400- 29.500
O/OREOS (USA 219) 24 May 17:28:26 17:32:44 45° 129° (SE) 17:37:02 437.305
ITUPSAT 1 24 May 17:29:45 17:33:59 32° 325° (NW) 17:38:11 437.325
AAUSAT CUBESAT 2 24 May 17:30:17 17:33:36 23° 34° (NNE) 17:36:56 437.432
CUBEBUG 2 24 May 17:31:41 17:35:23 23° 26° (NNE) 17:39:03 437.445
BEESAT 24 May 17:39:16 17:43:25 30° 327° (NNW) 17:47:31 436.000
ZACube-1 24 May 17:45:40 17:49:06 22° 25° (NNE) 17:52:32 437.345
SWISSCUBE 24 May 17:47:19 17:51:22 28° 330° (NNW) 17:55:23 437.505
CUBESAT XI-V 24 May 17:53:04 17:56:51 24° 85° (E) 18:00:42 437.345
UKube-1 24 May 17:53:42 17:56:52 20° 18° (NNE) 18:00:04 .
ESTCUBE 1 24 May 17:54:32 17:57:36 18° 7° (N) 18:00:40 437.505/2401.250
Cosmos 2504 24 May 17:56:25 18:03:29 38° 30° (NNE) 18:10:13 435.465 / 435.565
TISAT 1 24 May 17:57:05 17:59:52 17° 350° (N) 18:02:39 437.305
CINEMA 3 24 May 17:57:18 18:01:47 33° 38° (NE) 18:06:15 145.822/145.860
DX 1 24 May 17:58:13 18:01:29 21° 20° (NNE) 18:04:47 434.975-435.025
DOVE 4 24 May 17:58:37 18:03:35 43° 46° (NE) 18:08:38 437.250
MOZHAYETS 4 24 May 17:59:20 18:03:58 80° 111° (ESE) 18:08:33
STARS 24 May 18:01:35 18:05:50 44° 312° (NW) 18:10:05 437.465
CANX-2 24 May 18:01:49 18:05:45 37° 48° (NE) 18:09:43 2200.000
VELOX 1 24 May 18:02:03 18:05:13 19° 14° (NNE) 18:08:26 145.980
50 SAT 24 May 18:02:30 18:04:53 16° 16° (NNE) 18:07:16 437.505
HUMSAT D 24 May 18:02:39 18:05:40 19° 21° (NNE) 18:08:40 437.325/437.525
Oscar 11 24 May 18:04:02 18:07:37 26° 34° (NE) 18:11:12 145.826/435.025
STRAND 1 24 May 18:05:27 18:09:02 19° 78° (ENE) 18:12:42 437.568
BRITE-PL 24 May 18:05:30 18:10:49 62° 56° (NE) 18:16:26 437.365/2234.400
CUTE 1.7 + AOD 2 24 May 18:05:48 18:09:45 37° 47° (NE) 18:13:42 437.475
CUBEBUG 1 24 May 18:08:36 18:11:33 18° 9° (N) 18:14:31 437.445
RS-15 24 May 18:13:27 18:23:36 40° 236° (SW) 18:34:05 29.354- 29.394
DELFI C3 24 May 18:15:52 18:19:03 23° 35° (NE) 18:22:16 145.870
CUTE-I 24 May 18:16:36 18:21:39 41° 263° (W) 18:26:44 437.470
DANDE 24 May 18:17:23 18:25:11 39° 349° (N) 18:33:01 436.750
GOMX 1 24 May 18:22:00 18:27:17 60° 55° (NE) 18:32:45 467.674
UWE-3 24 May 18:24:09 18:28:10 29° 36° (NE) 18:32:08 435.000/436.395/437.385
KKS-1 24 May 18:27:07 18:31:08 31° 322° (NW) 18:35:06 437.445
AISAT 24 May 18:32:07 18:35:32 22° 22° (NNE) 18:38:59 437.250
SEEDS 24 May 18:32:34 18:36:35 45° 52° (NE) 18:40:38 437.485
Cubesat XI-IV 24 May 18:36:49 18:41:40 34° 268° (W) 18:46:31 437.490
Cosmos 2499 24 May 18:41:20 18:48:34 42° 324° (NW) 18:55:23 435.465 / 435.565
FUNcube-1 24 May 18:41:32 18:45:28 29° 38° (NE) 18:49:23 145.935
COMPASS 1 24 May 18:50:07 18:54:10 49° 54° (NE) 18:58:14 437.405
PRISM 24 May 18:50:24 18:53:56 27° 92° (E) 18:57:31 437.425
YUBILEINY 24 May 18:51:25 19:00:04 69° 261° (W) 19:08:40 435.215
HO-68 24 May 18:53:58 19:01:12 87° 57° (ENE) 19:08:27 435.675
SPROUT 24 May 18:58:03 19:00:51 17° 9° (N) 19:03:40 437.525
AAUSAT CUBESAT 2 24 May 19:04:33 19:08:38 53° 56° (NE) 19:12:43 437.432
CUBEBUG 2 24 May 19:06:46 19:11:16 43° 48° (NE) 19:15:44 437.445
ITUPSAT 1 24 May 19:07:17 19:10:51 21° 348° (NNW) 19:14:25 437.325
O/OREOS (USA 219) 24 May 19:07:28 19:12:00 85° 332° (NNW) 19:16:32 437.305
CUSAT 1 24 May 19:08:47 19:16:26 37° 5° (N) 19:23:39 437.405
Cosmos 2491 24 May 19:11:25 19:19:53 54° 90° (E) 19:28:25 435.465 / 435.565
BEESAT 24 May 19:16:41 19:20:12 21° 351° (N) 19:23:42 436.000
BEESAT 3 24 May 19:18:08 19:20:23 15° 129° (SE) 19:22:44 437.485
M-CUBED/EXP-1 PRIME 24 May 19:19:20 19:21:16 14° 93° (E) 19:23:12 437.505
ZACube-1 24 May 19:20:21 19:24:39 40° 47° (NE) 19:28:53 437.345
GONETS M04 24 May 19:22:34 19:30:37 36° 4° (N) 19:38:39
SWISSCUBE 24 May 19:24:39 19:28:07 20° 354° (N) 19:31:36 437.505
AO-7 24 May 19:25:03 19:27:32 11° 311° (NW) 19:29:45 29.400- 29.500
UKube-1 24 May 19:28:11 19:32:07 34° 41° (NE) 19:36:05 .
ESTCUBE 1 24 May 19:29:41 19:33:22 25° 30° (NNE) 19:37:04 437.505/2401.250
AUBIESAT-1 24 May 19:30:00 19:32:04 15° 94° (E) 19:34:10 437.475
CUBESAT XI-V 24 May 19:30:24 19:35:06 70° 108° (ESE) 19:39:49 437.345
TISAT 1 24 May 19:31:33 19:34:24 18° 14° (NNE) 19:37:18 437.305
DX 1 24 May 19:32:51 19:36:53 37° 43° (NE) 19:40:57 434.975-435.025
CINEMA 3 24 May 19:33:28 19:38:31 72° 60° (ENE) 19:43:33 145.822/145.860
50 SAT 24 May 19:35:16 19:38:36 26° 39° (NE) 19:41:57 437.505
DOVE 4 24 May 19:35:47 19:41:05 84° 248° (WSW) 19:46:30 437.250
HUMSAT D 24 May 19:36:38 19:40:31 34° 44° (NE) 19:44:24 437.325/437.525
MOZHAYETS 4 24 May 19:36:44 19:41:00 39° 314° (NW) 19:45:15
VELOX 1 24 May 19:36:53 19:40:47 30° 37° (NE) 19:44:44 145.980
CANX-2 24 May 19:37:13 19:41:31 78° 250° (WSW) 19:45:48 2200.000
STARS 24 May 19:38:02 19:41:33 23° 335° (NNW) 19:45:03 437.465
AIST 2 24 May 19:38:48 19:38:55 10° 120° (ESE) 19:39:08 435.215
Oscar 11 24 May 19:38:58 19:43:14 58° 57° (ENE) 19:47:31 145.826/435.025
CUTE 1.7 + AOD 2 24 May 19:41:11 19:45:29 78° 248° (WSW) 19:49:46 437.475
CUBEBUG 1 24 May 19:43:11 19:46:49 26° 32° (NNE) 19:50:30 437.445
BRITE-PL 24 May 19:44:12 19:49:29 56° 259° (W) 19:55:05 437.365/2234.400
STRAND 1 24 May 19:44:25 19:49:27 51° 102° (ESE) 19:54:30 437.568
DELFI C3 24 May 19:49:39 19:53:36 54° 57° (ENE) 19:57:34 145.870
Cosmos 2504 24 May 19:50:39 19:58:13 69° 59° (ENE) 20:05:26 435.465 / 435.565
AIST 1 24 May 19:55:15 19:58:38 23° 84° (E) 20:02:05
UWE-3 24 May 19:59:31 20:04:10 64° 59° (ENE) 20:08:47 435.000/436.395/437.385
CUTE-I 24 May 20:00:03 20:03:16 16° 288° (WNW) 20:06:22 437.470
GOMX 1 24 May 20:00:15 20:05:32 57° 258° (WSW) 20:11:00 467.674
BEESAT 2 24 May 20:02:08 20:05:12 20° 137° (SE) 20:08:18 435.950
DANDE 24 May 20:02:32 20:10:30 41° 16° (NNE) 20:18:12 436.750
KKS-1 24 May 20:03:33 20:06:47 20° 345° (NNW) 20:10:02 437.445
AISAT 24 May 20:07:07 20:11:18 39° 45° (NE) 20:15:30 437.250
SEEDS 24 May 20:08:09 20:12:22 61° 254° (WSW) 20:16:34 437.485
FUNcube-1 24 May 20:16:45 20:21:20 68° 60° (ENE) 20:25:51 145.935
Cubesat XI-IV 24 May 20:21:09 20:23:32 13° 293° (WNW) 20:25:47 437.490
RS-15 24 May 20:25:32 20:32:49 19° 265° (W) 20:39:53 29.354- 29.394
COMPASS 1 24 May 20:25:46 20:29:53 54° 256° (WSW) 20:34:01 437.405
PRISM 24 May 20:25:46 20:29:56 87° 112° (ESE) 20:34:06 437.425
SPROUT 24 May 20:32:18 20:35:49 24° 32° (NNE) 20:39:23 437.525
Cosmos 2499 24 May 20:37:12 20:43:45 31° 353° (N) 20:50:00 435.465 / 435.565
AAUSAT CUBESAT 2 24 May 20:40:17 20:44:22 48° 259° (W) 20:48:26 437.432
HO-68 24 May 20:42:47 20:49:40 45° 263° (W) 20:56:32 435.675
CUBEBUG 2 24 May 20:43:00 20:47:49 75° 251° (WSW) 20:52:34 437.445
ITUPSAT 1 24 May 20:43:58 20:47:32 21° 13° (NNE) 20:51:08 437.325
O/OREOS (USA 219) 24 May 20:47:14 20:51:44 63° 357° (N) 20:56:12 437.305
YUBILEINY 24 May 20:48:16 20:55:43 33° 288° (WNW) 21:03:03 435.215
CUSAT 1 24 May 20:52:58 21:00:59 47° 32° (NNE) 21:08:14 437.405
BEESAT 24 May 20:53:13 20:56:50 22° 15° (NNE) 21:00:28 436.000
M-CUBED/EXP-1 PRIME 24 May 20:53:32 20:57:01 51° 116° (ESE) 21:00:18 437.505
BEESAT 3 24 May 20:53:46 20:57:25 31° 151° (SSE) 21:01:05 437.485
ZACube-1 24 May 20:56:12 21:00:49 79° 248° (WSW) 21:05:24 437.345
SWISSCUBE 24 May 21:01:06 21:04:48 23° 18° (NNE) 21:08:29 437.505
UKube-1 24 May 21:03:36 21:07:58 87° 64° (ENE) 21:12:22 .
AUBIESAT-1 24 May 21:04:13 21:07:42 55° 117° (ESE) 21:11:00 437.475
ESTCUBE 1 24 May 21:05:12 21:09:35 52° 53° (NE) 21:14:00 437.505/2401.250
TISAT 1 24 May 21:05:31 21:09:11 28° 37° (NE) 21:12:52 437.305
Cosmos 2491 24 May 21:07:41 21:16:34 79° 297° (WNW) 21:25:31 435.465 / 435.565
CUBESAT XI-V 24 May 21:08:00 21:12:27 44° 311° (NW) 21:16:55 437.345
DX 1 24 May 21:08:29 21:12:53 86° 246° (WSW) 21:17:20 434.975-435.025
50 SAT 24 May 21:08:53 21:12:52 67° 61° (ENE) 21:16:51 437.505
CINEMA 3 24 May 21:11:12 21:16:02 43° 264° (W) 21:20:50 145.822/145.860
HUMSAT D 24 May 21:11:37 21:15:59 89° 60° (ENE) 21:20:18 437.325/437.525
VELOX 1 24 May 21:12:27 21:16:55 72° 60° (ENE) 21:21:25 145.980
AIST 2 24 May 21:12:48 21:16:17 24° 141° (SE) 21:19:47 435.215
STARS 24 May 21:13:50 21:16:51 18° 358° (N) 21:19:51 437.465
MOZHAYETS 4 24 May 21:13:54 21:17:23 22° 337° (NNW) 21:20:50
CANX-2 24 May 21:14:32 21:18:05 24° 273° (W) 21:21:36 2200.000
DOVE 4 24 May 21:14:45 21:19:30 32° 272° (W) 21:24:18 437.250
Oscar 11 24 May 21:15:22 21:19:35 46° 259° (W) 21:23:48 145.826/435.025
CUBEBUG 1 24 May 21:18:17 21:22:35 56° 55° (NE) 21:26:57 437.445
CUTE 1.7 + AOD 2 24 May 21:18:30 21:22:03 24° 272° (W) 21:25:34 437.475
ANTELSAT 24 May 21:18:52 21:20:54 13° 72° (ENE) 21:23:02 437.575/2403.000
GONETS M04 24 May 21:21:20 21:29:50 46° 34° (NE) 21:38:17
STRAND 1 24 May 21:23:48 21:28:54 64° 305° (NW) 21:33:59 437.568
DELFI C3 24 May 21:24:55 21:28:50 46° 259° (W) 21:32:45 145.870
BRITE-PL 24 May 21:25:03 21:29:14 22° 284° (WNW) 21:33:30 437.365/2234.400
AIST 1 24 May 21:31:29 21:35:47 76° 106° (ESE) 21:40:07
UWE-3 24 May 21:36:23 21:40:55 45° 261° (W) 21:45:24 435.000/436.395/437.385
BEESAT 2 24 May 21:38:39 21:42:31 37° 159° (SSE) 21:46:23 435.950
KKS-1 24 May 21:39:05 21:42:12 19° 9° (N) 21:45:21 437.445
GOMX 1 24 May 21:40:37 21:44:48 22° 283° (WNW) 21:49:01 467.674
NANOSAT C BR1 24 May 21:42:05 21:43:05 11° 70° (ENE) 21:44:12 145.865
AISAT 24 May 21:43:10 21:47:40 82° 248° (WSW) 21:52:13 437.250
Cosmos 2504 24 May 21:44:20 21:51:37 56° 266° (W) 21:58:36 435.465 / 435.565
SEEDS 24 May 21:45:52 21:48:59 19° 277° (W) 21:52:04 437.485
DANDE 24 May 21:46:55 21:55:26 57° 42° (NE) 22:03:17 436.750
QB50P2 24 May 21:47:45 21:49:20 12° 72° (ENE) 21:51:01 145.880/145.840
TIGRISAT 24 May 21:52:26 21:55:36 19° 80° (E) 21:58:47 435.000
FUNcube-1 24 May 21:53:34 21:57:56 41° 263° (W) 22:02:15 145.935
POPSAT HIP 1 24 May 22:00:20 22:02:30 14° 75° (ENE) 22:04:46 437.405
PRISM 24 May 22:01:23 22:05:08 34° 316° (NW) 22:08:54 437.425
COMPASS 1 24 May 22:03:38 22:06:29 17° 279° (W) 22:09:17 437.405
DUCHIFAT 1 24 May 22:04:21 22:06:37 14° 76° (ENE) 22:08:58 145.980
SPROUT 24 May 22:07:03 22:11:17 53° 54° (NE) 22:15:34 437.525
UNISAT 6 24 May 22:11:36 22:15:14 23° 85° (E) 22:18:51 437.425
AAUSAT CUBESAT 2 24 May 22:18:23 22:20:58 16° 282° (WNW) 22:23:30 437.432
ITUPSAT 1 24 May 22:20:12 22:24:26 32° 36° (NE) 22:28:42 437.325
CUBEBUG 2 24 May 22:21:10 22:25:13 26° 273° (W) 22:29:12 437.445
O/OREOS (USA 219) 24 May 22:26:59 22:31:31 76° 21° (NNE) 22:36:01 437.305
M-CUBED/EXP-1 PRIME 24 May 22:28:29 22:31:57 48° 319° (NW) 22:35:14 437.505
BEESAT 24 May 22:29:26 22:33:44 35° 38° (NE) 22:38:03 436.000
BEESAT 3 24 May 22:30:54 22:34:51 45° 174° (S) 22:38:49 437.485
Cosmos 2499 24 May 22:32:27 22:39:08 35° 23° (NNE) 22:45:34 435.465 / 435.565
ZACube-1 24 May 22:33:55 22:37:51 26° 272° (W) 22:41:41 437.345
HO-68 24 May 22:34:23 22:39:27 20° 289° (WNW) 22:44:23 435.675
CUSAT 1 24 May 22:36:24 22:44:47 78° 58° (ENE) 22:52:04 437.405
SWISSCUBE 24 May 22:37:22 22:41:45 37° 41° (NE) 22:46:10 437.505
BUGSAT 1 24 May 22:38:38 22:41:32 18° 81° (E) 22:44:30 437.445
AUBIESAT-1 24 May 22:39:06 22:42:31 45° 321° (NW) 22:45:46 437.475
TISAT 1 24 May 22:40:14 22:44:30 67° 59° (ENE) 22:48:48 437.305
UKube-1 24 May 22:40:43 22:44:36 30° 267° (W) 22:48:29 .
ESTCUBE 1 24 May 22:42:05 22:46:32 55° 256° (WSW) 22:51:00 437.505/2401.250
50 SAT 24 May 22:44:06 22:47:52 36° 263° (W) 22:51:35 437.505
QB50P1 24 May 22:44:11 22:47:37 23° 86° (E) 22:51:03 145.935-145.965
POLYITAN 1 24 May 22:44:44 22:48:13 23° 86° (E) 22:51:41 437.675
YUBILEINY 24 May 22:45:04 22:49:51 16° 316° (NW) 22:54:28 435.215
CUBESAT XI-V 24 May 22:45:26 22:49:07 23° 334° (NNW) 22:52:48 437.345
DX 1 24 May 22:45:53 22:49:43 28° 269° (W) 22:53:32 434.975-435.025
HUMSAT D 24 May 22:48:24 22:52:14 29° 269° (W) 22:56:00 437.325/437.525
STARS 24 May 22:48:45 22:52:07 21° 22° (NNE) 22:55:31 437.465
VELOX 1 24 May 22:49:36 22:53:48 38° 263° (W) 22:58:02 145.980
AIST 2 24 May 22:50:06 22:54:10 41° 164° (SSE) 22:58:13 435.215
MOZHAYETS 4 24 May 22:50:22 22:53:23 18° 1° (N) 22:56:24
CINEMA 3 24 May 22:51:23 22:54:32 16° 287° (WNW) 22:57:35 145.822/145.860
Oscar 11 24 May 22:54:11 22:56:50 15° 283° (WNW) 22:59:26 145.826/435.025
CUBEBUG 1 24 May 22:54:46 22:59:04 50° 258° (WSW) 23:03:25 437.445
ANTELSAT 24 May 22:54:47 22:59:03 38° 96° (E) 23:03:12 437.575/2403.000
DOVE 4 24 May 22:56:42 22:58:59 12° 296° (WNW) 23:01:08 437.250
DELFI C3 24 May 23:02:39 23:04:58 14° 282° (WNW) 23:07:12 145.870
STRAND 1 24 May 23:03:02 23:07:33 32° 329° (NNW) 23:12:03 437.568
Cosmos 2491 24 May 23:06:17 23:14:46 46° 326° (NW) 23:23:15 435.465 / 435.565
AIST 1 24 May 23:09:47 23:13:49 37° 311° (NW) 23:17:52
KKS-1 24 May 23:13:59 23:17:47 27° 32° (NNE) 23:21:35 437.445
UWE-3 24 May 23:15:40 23:18:36 16° 284° (WNW) 23:21:27 435.000/436.395/437.385
BEESAT 2 24 May 23:16:08 23:20:08 46° 182° (S) 23:24:08 435.950
NANOSAT C BR1 24 May 23:16:24 23:20:18 32° 94° (E) 23:24:13 145.865
GONETS M04 24 May 23:19:03 23:27:59 80° 64° (ENE) 23:36:49
AISAT 24 May 23:21:03 23:24:54 27° 270° (W) 23:28:45 437.250
QB50P2 24 May 23:22:32 23:26:32 35° 96° (E) 23:30:32 145.880/145.840
